Location: Chiroubles
(46.1812°N, 4.6660°E)
Time: 15:41:08
(UTC+00:00)

Transit 4A - Pass Details

Date: 07 December 2020
Orbit: 864 x 980 km, 66.8° (Epoch: 26 January)

Event Time Altitude Azimuth Distance (km) Brightness Sun altitude
Rises 10:57:47 0° 320° (NW) 3,691 10.5 20.7°
Reaches altitude 10° 11:02:20 10° 349° (N) 2,736 9.8 20.8°
Maximum altitude 11:04:52 12° 12° (NNE) 2,558 9.7 20.8°
Drops below altitude 10° 11:07:22 10° 36° (NE) 2,719 10.0 20.9°
Sets 11:11:51 0° 65° (ENE) 3,643 10.8 21.0°
